Home > Weather > Einsiedeln > Past weeks

Flag for Switzerland Past Weather in Einsiedeln, Schwyz, Switzerland — Yesterday and Last 2 Weeks

Now
76 °F

Mild.


Feels Like: 78 °F
Forecast: 53 / 65 °F
Wind: 2 mph from Northeast

Location: Altdorf

Current Time: Jul 1, 2016 at 7:11:55 PM

Latest Report: Jul 1, 2016 at 6:00 PM


Visibility: N/A

Pressure: 29.96 "Hg (27.06 "Hg at 887m altitude)

Humidity: 64%

Dew Point: 63 °F

Location of EinsiedelnLocation

Past Weather in Einsiedeln — Graph

°F

Einsiedeln Temperature Yesterday

Maximum temperature yesterday: 72 °F (at 1:00 PM)
Minimum temperature yesterday: 62 °F (at 11:00 PM)
Average temperature yesterday: 67 °F

High & Low Weather Summary for the Past Weeks

 TemperatureHumidityPressure
High87 °F (Jun 23, 5:00 PM)100% (Jun 22, 9:00 AM)30.29 "Hg (Jun 22, 9:00 AM)
Low48 °F (Jun 17, 5:00 AM)44% (Jun 27, 5:00 PM)29.65 "Hg (Jun 16, 6:00 PM)
Average64 °F78%30.07 "Hg
* Reported Jun 16 5:00 PM — Jul 1 5:00 PM, Einsiedeln, Weather by CustomWeather, © 2016

Note: Actual official high and low records may vary slightly from our data, if they occured in-between our weather recording intervals... More about our weather records

Advertising

Einsiedeln Weather History for the Previous 24 Hours

Scroll right to see more
 ConditionsComfort  
Time TempWeatherWind HumidityBarometerVisibility
5:00 PM
Fri, Jul 1
76 °FPartly sunny.5 mph59%29.96 "Hg12 mi
4:00 PM77 °FMild.8 mph57%29.96 "HgN/A
3:00 PM77 °FWarm.8 mph64%29.97 "HgN/A
2:00 PM75 °FPassing clouds.8 mph65%30.00 "Hg12 mi
1:00 PM74 °FMild.6 mph67%30.02 "HgN/A
12:00 PM72 °FMild.7 mph72%30.04 "HgN/A
11:00 AM69 °FPassing clouds.3 mph72%30.05 "Hg12 mi
10:00 AM67 °FMild.2 mph75%30.07 "HgN/A
9:00 AM64 °FMild.7 mph85%30.07 "HgN/A
8:00 AM61 °FScattered clouds.1 mph89%30.07 "Hg12 mi
7:00 AM59 °FCool.1 mph91%30.09 "HgN/A
6:00 AM58 °FCool.3 mph93%30.09 "HgN/A
5:00 AM58 °FPassing clouds.3 mph94%30.10 "Hg9 mi
4:00 AM60 °FCool.1 mph94%30.09 "HgN/A
3:00 AM60 °FCool.2 mph93%30.09 "HgN/A
2:00 AM60 °FCool.1 mph92%30.09 "HgN/A
1:00 AM61 °FCool.2 mph93%30.09 "HgN/A
12:00 AM62 °FCool.5 mph94%30.09 "HgN/A
11:00 PM
Thu, Jun 30
62 °FOvercast.2 mph93%30.09 "Hg9 mi
10:00 PM64 °FMild.1 mph92%30.06 "HgN/A
9:00 PM66 °FMild.1 mph90%30.03 "HgN/A
8:00 PM66 °FRain. Low clouds.3 mph93%30.02 "Hg1 mi
7:00 PM68 °FMild.2 mph88%29.99 "HgN/A
Weather by CustomWeather, © 2016

See weather overviewHow to use our weather pages